YD2CLX-14 Weather Reports


time (UTC)temp
C
wind
direction
speed
KPH
gust
KPH
rain 1hr
cm
rain 24hr
cm
rain mn
cm
humidity
%
barometer
mb
20260502221053 16 162 4.8 4.8 0.00 0.00 0.00 90 806.4
20260502220552 16 162 4.8 4.8 0.00 0.00 0.00 92 806.4
20260502220057 16 162 4.8 4.8 0.00 0.00 0.00 91 806.4
20260502215552 16 162 4.8 4.8 0.00 0.00 0.00 91 806.4
20260502215053 16 162 4.8 4.8 0.00 0.00 0.00 91 806.4
20260502214552 16 162 4.8 4.8 0.00 0.00 0.00 91 806.4
20260502214052 16 162 4.8 4.8 0.00 0.00 0.00 92 806.4
20260502213552 16 162 4.8 4.8 0.00 0.00 0.00 92 806.4
20260502213055 16 162 4.8 4.8 0.00 0.00 0.00 92 806.4
20260502212552 16 170 4.8 4.8 0.00 0.00 0.00 92 806.3
20260502212053 16 170 4.8 4.8 0.00 0.00 0.00 92 806.3
20260502211553 16 170 4.8 4.8 0.00 0.00 0.00 92 806.3
20260502211053 16 170 4.8 4.8 0.00 0.00 0.00 92 806.3
20260502210552 16 170 4.8 4.8 0.00 0.00 0.00 91 806.3
20260502210056 16 170 4.8 4.8 0.00 0.00 0.00 92 806.2
20260502205552 16 170 4.8 4.8 0.00 0.00 0.00 92 806.2
20260502205053 16 170 4.8 4.8 0.00 0.00 0.00 92 806.2
20260502204552 16 170 4.8 4.8 0.00 0.00 0.00 92 806.3
20260502204053 16 170 4.8 4.8 0.00 0.00 0.00 92 806.3
20260502203552 16 170 4.8 4.8 0.00 0.00 0.00 92 806.3
20260502203054 16 170 4.8 4.8 0.00 0.00 0.00 91 806.3
20260502202552 16 172 4.8 4.8 0.00 0.00 0.00 92 806.3
20260502202053 16 172 4.8 4.8 0.00 0.00 0.00 91 806.4
20260502201552 16 172 4.8 4.8 0.00 0.00 0.00 91 806.4
20260502201053 16 172 4.8 4.8 0.00 0.00 0.00 91 806.5
20260502200552 16 172 4.8 4.8 0.00 0.00 0.00 91 806.6
20260502200057 17 172 4.8 4.8 0.00 0.00 0.00 91 806.6
20260502195552 17 172 4.8 4.8 0.00 0.00 0.00 91 806.6
20260502195053 17 172 4.8 4.8 0.00 0.00 0.00 92 806.6
20260502194553 17 172 4.8 4.8 0.00 0.00 0.00 92 806.7
20260502194053 17 172 4.8 4.8 0.00 0.00 0.00 92 806.7
20260502193552 16 172 4.8 4.8 0.00 0.00 0.00 92 806.7
20260502193055 16 172 4.8 4.8 0.00 0.00 0.00 91 806.6
20260502192552 16 175 4.8 4.8 0.00 0.00 0.00 91 806.6
20260502192053 16 175 4.8 4.8 0.00 0.00 0.00 91 806.7
20260502191553 16 175 4.8 4.8 0.00 0.00 0.00 91 806.7
20260502191053 16 175 4.8 4.8 0.00 0.00 0.00 91 806.7
20260502190552 17 175 4.8 4.8 0.00 0.00 0.00 91 806.8
20260502190055 17 175 4.8 4.8 0.00 0.00 0.00 91 806.9
20260502185552 16 175 4.8 4.8 0.00 0.00 0.00 91 806.8
20260502185052 17 175 4.8 4.8 0.00 0.00 0.00 90 806.8
20260502184553 17 175 4.8 4.8 0.00 0.00 0.00 90 806.7
20260502184053 17 175 4.8 4.8 0.00 0.00 0.00 90 806.8
20260502183552 17 182 3.2 3.2 0.00 0.00 0.00 91 806.8
20260502183054 17 175 4.8 4.8 0.00 0.00 0.00 91 806.8
20260502182552 17 182 3.2 3.2 0.00 0.00 0.00 90 806.9
20260502182052 17 182 3.2 3.2 0.00 0.00 0.00 91 806.9
20260502181553 17 182 3.2 3.2 0.00 0.00 0.00 91 806.9
20260502181053 17 182 3.2 3.2 0.00 0.00 0.00 89 807.0
20260502180552 17 182 3.2 3.2 0.00 0.00 0.00 90 807.0
20260502164053 17 182 1.6 1.6 0.00 0.00 0.00 90 807.6
20260502163552 17 166 1.6 1.6 0.00 0.00 0.00 90 807.6
20260502163053 17 182 1.6 1.6 0.00 0.00 0.00 90 807.7
20260502162552 17 166 1.6 1.6 0.00 0.00 0.00 90 807.7
20260502162052 17 166 1.6 1.6 0.00 0.00 0.00 90 807.8
20260502161552 17 166 1.6 1.6 0.00 0.00 0.00 90 807.8
20260502161052 17 166 1.6 1.6 0.00 0.00 0.00 90 807.9
20260502160552 17 166 1.6 1.6 0.03 0.00 0.00 91 808.0
20260502152051 17 165 3.2 3.2 0.03 0.00 0.00 90 807.6
20260502151552 17 165 3.2 3.2 0.00 0.00 0.00 89 807.7
20260502151014 17 165 3.2 3.2 0.00 0.00 0.00 89 807.8
20260502150515 17 165 3.2 3.2 0.00 0.00 0.00 90 807.8
20260502130515 18 92 32.2 80.5 0.00 0.00 0.00 90 808.0
20260502123516 18 92 32.2 80.5 0.00 0.00 0.00 91 807.5
20260502123015 17 92 32.2 80.5 0.00 0.00 0.00 90 807.5
20260502122514 17 92 32.2 80.5 0.00 0.00 0.00 91 807.4
20260502122014 18 92 32.2 80.5 0.00 0.00 0.00 91 807.3
20260502121514 18 92 32.2 80.5 0.00 0.00 0.00 90 807.1
20260502121014 18 92 32.2 80.5 0.00 0.00 0.00 90 806.9
20260502120514 18 92 32.2 80.5 0.00 0.00 0.00 90 806.8
20260502115514 18 92 32.2 80.5 0.00 0.00 0.00 89 806.8
20260502115014 18 92 32.2 80.5 0.00 0.00 0.00 89 806.8
20260502114514 18 92 32.2 80.5 0.00 0.00 0.00 89 806.7
20260502114015 18 92 32.2 80.5 0.00 0.00 0.00 88 806.8
20260502113514 18 92 32.2 80.5 0.00 0.00 0.00 88 806.8
20260502113015 18 92 32.2 80.5 0.00 0.00 0.00 89 806.8
20260502112515 18 92 32.2 80.5 0.00 0.00 0.00 89 806.8
20260502112015 18 92 32.2 80.5 0.00 0.00 0.00 90 806.8
20260502111515 18 92 32.2 80.5 0.00 0.00 0.00 90 806.7
20260502111015 18 92 32.2 80.5 0.00 0.00 0.00 87 806.6
20260502110514 18 92 32.2 80.5 0.00 0.00 0.00 91 806.5
20260502110016 18 92 32.2 80.5 0.00 0.00 0.00 89 806.4
20260502105515 18 92 32.2 80.5 0.00 0.00 0.00 90 806.3
20260502105014 18 92 32.2 80.5 0.00 0.00 0.00 88 806.4
20260502104514 18 209 3.2 3.2 0.00 0.00 0.00 89 806.3
20260502104014 18 209 3.2 3.2 0.00 0.00 0.00 90 806.2
20260502103514 18 209 3.2 3.2 0.00 0.00 0.00 90 806.1
20260502103014 18 241 1.6 3.2 0.00 0.00 0.00 90 806.1
20260502102514 18 241 1.6 3.2 0.00 0.00 0.00 89 806.2
20260502102014 18 241 1.6 3.2 0.00 0.00 0.00 89 806.2
20260502101515 18 241 1.6 3.2 0.00 0.00 0.00 89 806.1
20260502101014 18 241 1.6 3.2 0.00 0.00 0.00 88 806.0
20260502100515 18 92 32.2 80.5 0.00 0.00 0.00 89 806.0
20260502091514 19 92 32.2 80.5 0.00 0.00 0.00 89 805.9
20260502091014 19 92 32.2 80.5 0.00 0.00 0.00 89 805.8
20260502090514 19 92 32.2 80.5 0.00 0.00 0.00 88 805.7
20260502071514 21 92 32.2 80.5 0.00 0.00 0.00 84 805.7
20260502071014 23 92 32.2 80.5 0.00 0.00 0.00 79 805.8
20260502070515 25 92 32.2 80.5 0.00 0.00 0.00 77 805.9
20260502070018 26 92 32.2 80.5 0.00 0.00 0.00 76 805.8
20260502065515 25 92 32.2 80.5 0.00 0.00 0.00 80 805.9
20260502065015 23 92 32.2 80.5 0.00 0.00 0.00 78 806.0
20260502064515 23 92 32.2 80.5 0.00 0.00 0.00 78 806.0
20260502064015 23 92 32.2 80.5 0.00 0.00 0.00 78 806.1
20260502063515 24 92 32.2 80.5 0.00 0.00 0.00 76 806.2
20260502063016 25 92 32.2 80.5 0.00 0.00 0.00 77 806.3
20260502062515 24 92 32.2 80.5 0.00 0.00 0.00 82 806.4
20260502062014 22 92 32.2 80.5 0.00 0.00 0.00 84 806.5
20260502061515 21 92 32.2 80.5 0.00 0.00 0.00 84 806.6
20260502061014 21 92 32.2 80.5 0.00 0.00 0.00 83 806.7
20260502060515 22 92 32.2 80.5 0.00 0.00 0.00 81 806.7
20260502060020 23 92 32.2 80.5 0.00 0.00 0.00 79 806.7
20260502055515 26 92 32.2 80.5 0.00 0.00 0.00 74 806.8
20260502055015 26 92 32.2 80.5 0.00 0.00 0.00 75 806.9
20260502054514 26 92 32.2 80.5 0.00 0.00 0.00 73 807.0
20260502054015 25 92 32.2 80.5 0.00 0.00 0.00 76 807.0
20260502053515 23 92 32.2 80.5 0.00 0.00 0.00 82 807.1
20260502053014 23 92 32.2 80.5 0.00 0.00 0.00 77 807.1
20260502052515 23 92 32.2 80.5 0.00 0.00 0.00 76 807.2
20260502052015 24 92 32.2 80.5 0.00 0.00 0.00 76 807.2
20260502051514 24 92 32.2 80.5 0.00 0.00 0.00 76 807.2
20260502051014 25 92 32.2 80.5 0.00 0.00 0.00 76 807.2
20260502050515 25 92 32.2 80.5 0.00 0.00 0.00 72 807.3
20260502050017 23 92 32.2 80.5 0.00 0.00 0.00 79 807.4
20260502045514 23 92 32.2 80.5 0.00 0.00 0.00 80 807.4
20260502045014 24 92 32.2 80.5 0.00 0.00 0.00 80 807.5
20260502044515 24 92 32.2 80.5 0.00 0.00 0.00 81 807.6
20260502044014 22 92 32.2 80.5 0.00 0.00 0.00 81 807.6
20260502043514 21 92 32.2 80.5 0.00 0.00 0.00 82 807.7
20260502043014 21 92 32.2 80.5 0.00 0.00 0.00 83 807.8
20260502042514 22 92 32.2 80.5 0.00 0.00 0.00 82 807.7
20260502042014 22 92 32.2 80.5 0.00 0.00 0.00 82 807.8
20260502041514 21 330 1.6 4.8 0.00 0.00 0.00 85 807.9
20260502041015 21 330 1.6 4.8 0.00 0.00 0.00 84 807.9
20260502040514 21 330 1.6 4.8 0.00 0.00 0.00 86 808.0
20260502040015 21 330 1.6 4.8 0.00 0.00 0.00 83 808.0
20260502035514 21 330 1.6 4.8 0.00 0.00 0.00 87 808.0
20260502035014 20 330 1.6 4.8 0.00 0.00 0.00 85 808.1
20260502034514 20 330 1.6 4.8 0.00 0.00 0.00 86 808.1
20260502034015 20 330 1.6 4.8 0.00 0.00 0.00 89 808.2
20260502033515 20 330 1.6 4.8 0.00 0.00 0.00 87 808.2
20260502033014 20 330 1.6 4.8 0.00 0.00 0.00 86 808.2
20260502032514 21 92 32.2 80.5 0.00 0.00 0.00 83 808.2
20260502032015 21 92 32.2 80.5 0.00 0.00 0.00 82 808.3
20260502031514 22 92 32.2 80.5 0.00 0.00 0.00 78 808.3
20260502031014 25 3 1.6 4.8 0.00 0.00 0.00 77 808.3
20260502030515 26 3 1.6 4.8 0.00 0.00 0.00 75 808.3
20260502030014 24 3 1.6 4.8 0.00 0.00 0.00 80 808.3
20260502025515 23 3 1.6 4.8 0.00 0.00 0.00 81 808.4
20260502025028 24 3 1.6 4.8 0.00 0.00 0.00 78 808.4
20260502024528 26 3 1.6 4.8 0.00 0.00 0.00 75 808.3
20260502024028 25 3 1.6 4.8 0.00 0.00 0.00 75 808.3
20260502023528 24 3 1.6 4.8 0.00 0.00 0.00 78 808.4
20260502023028 23 82 0.0 3.2 0.00 0.00 0.00 80 808.3
20260502022528 23 82 0.0 3.2 0.00 0.00 0.00 79 808.3
20260502022028 23 82 0.0 3.2 0.00 0.00 0.00 82 808.2
20260502021528 23 82 0.0 3.2 0.00 0.00 0.00 79 808.3
20260502021029 22 82 0.0 3.2 0.00 0.00 0.00 79 808.2
20260502020528 23 82 0.0 3.2 0.00 0.00 0.00 74 808.2
20260502020028 24 82 0.0 3.2 0.00 0.00 0.00 71 808.2
20260502015529 24 82 0.0 3.2 0.00 0.00 0.00 74 808.3
20260502015028 25 82 0.0 3.2 0.00 0.00 0.00 70 808.2
20260502014529 27 82 0.0 3.2 0.00 0.00 0.00 69 808.2
20260502014028 28 82 0.0 3.2 0.00 0.00 0.00 67 808.1
20260502013529 29 82 0.0 3.2 0.00 0.00 0.00 60 808.0
20260502013029 28 142 1.6 3.2 0.00 0.00 0.00 68 807.9
20260502012529 27 142 1.6 3.2 0.00 0.00 0.00 63 807.9
20260502012028 27 142 1.6 3.2 0.00 0.00 0.00 67 807.8
20260502011529 26 142 1.6 3.2 0.00 0.00 0.00 66 807.8
20260502011028 25 142 1.6 3.2 0.00 0.00 0.00 74 807.8
20260502010529 23 142 1.6 3.2 0.00 0.00 0.00 77 807.8
20260502010028 24 142 1.6 3.2 0.00 0.00 0.00 73 807.8
20260502005529 24 142 1.6 3.2 0.00 0.00 0.00 76 807.7
20260502005029 24 142 1.6 3.2 0.00 0.00 0.00 71 807.8
20260502004529 25 142 1.6 3.2 0.00 0.00 0.00 71 807.7
20260502004028 25 142 1.6 3.2 0.00 0.00 0.00 73 807.7
20260502003529 23 142 1.6 3.2 0.00 0.00 0.00 77 807.6
20260502003028 23 136 3.2 4.8 0.00 0.00 0.00 69 807.6
20260502002529 22 136 3.2 4.8 0.00 0.00 0.00 73 807.6
20260502002028 22 136 3.2 4.8 0.00 0.00 0.00 77 807.5
20260502001529 21 136 3.2 4.8 0.00 0.00 0.00 81 807.6
20260502001028 20 136 3.2 4.8 0.00 0.00 0.00 79 807.5
20260502000529 20 136 3.2 4.8 0.00 0.00 0.00 77 807.5
20260502000029 19 137 3.2 4.8 0.00 0.00 0.00 81 807.4
20260501235528 18 137 3.2 4.8 0.00 0.00 0.00 83 807.3
20260501235029 17 137 3.2 4.8 0.00 0.00 0.00 89 807.3
20260501234528 17 137 3.2 4.8 0.00 0.00 0.00 88 807.1
20260501234029 16 137 3.2 4.8 0.00 0.00 0.00 89 807.1
20260501233529 16 137 3.2 4.8 0.00 0.00 0.00 89 807.0
20260501233028 16 149 4.8 6.4 0.00 0.00 0.00 89 807.0
20260501232528 16 149 4.8 6.4 0.00 0.00 0.00 90 806.9
20260501232028 16 149 4.8 6.4 0.00 0.00 0.00 90 806.9
20260501231528 16 149 4.8 6.4 0.00 0.00 0.00 91 806.9
20260501231028 16 149 4.8 6.4 0.00 0.00 0.00 90 806.9
20260501230528 16 149 4.8 6.4 0.00 0.00 0.00 90 806.9
20260501230028 16 149 4.8 6.4 0.00 0.00 0.00 90 806.8
20260501225528 16 149 4.8 6.4 0.00 0.00 0.00 91 806.7
20260501225028 16 149 4.8 6.4 0.00 0.00 0.00 92 806.6
20260501224529 16 149 4.8 6.4 0.00 0.00 0.00 92 806.6
20260501224029 16 149 4.8 6.4 0.00 0.00 0.00 91 806.7
20260501223529 16 157 4.8 4.8 0.00 0.00 0.00 92 806.7
20260501223029 16 149 4.8 6.4 0.00 0.00 0.00 91 806.7
20260501222529 16 157 4.8 4.8 0.00 0.00 0.00 92 806.7
20260501222028 16 157 4.8 4.8 0.00 0.00 0.00 92 806.7
20260501221528 16 157 4.8 4.8 0.00 0.00 0.00 92 806.7